| time (UTC) | temp C | wind direction | speed KPH | gust KPH | rain 1hr cm | rain 24hr cm | rain mn cm | humidity % | barometer mb |
| 20260906051524 | 14 | 240 | 0.0 | 0.0 | 0.00 | 0.00 | 0.00 | 94 | 1025.6 |
| 20260906050020 | 14 | 240 | 0.0 | 0.0 | 0.00 | 0.00 | 0.00 | 94 | 1025.2 |
| 20260906044514 | 14 | 240 | 0.0 | 0.0 | 0.00 | 0.00 | 0.00 | 94 | 1025.2 |
| 20260906043038 | 14 | 240 | 0.0 | 0.0 | 0.00 | 0.00 | 0.00 | 94 | 1025.0 |
| 20260906041523 | 13 | 240 | 0.0 | 0.0 | 0.00 | 0.00 | 0.00 | 94 | 1024.8 |
| 20260906040020 | 14 | 240 | 0.0 | 0.0 | 0.00 | 0.00 | 0.00 | 93 | 1024.8 |
| 20260906034523 | 14 | 240 | 0.0 | 0.0 | 0.00 | 0.00 | 0.00 | 94 | 1024.6 |
| 20260906033016 | 14 | 240 | 0.0 | 0.0 | 0.00 | 0.00 | 0.00 | 94 | 1024.4 |
| 20260906031514 | 14 | 240 | 0.0 | 0.0 | 0.00 | 0.00 | 0.00 | 93 | 1024.3 |
| 20260906030013 | 15 | 240 | 0.0 | 0.0 | 0.00 | 0.00 | 0.00 | 93 | 1024.2 |
| 20260906024511 | 15 | 240 | 0.0 | 0.0 | 0.00 | 0.00 | 0.00 | 93 | 1024.1 |
| 20260906023011 | 15 | 240 | 0.0 | 0.0 | 0.00 | 0.00 | 0.00 | 93 | 1024.0 |
| 20260906021509 | 15 | 240 | 0.0 | 0.0 | 0.00 | 0.00 | 0.00 | 92 | 1024.1 |
| 20260906020006 | 16 | 240 | 0.0 | 0.0 | 0.00 | 0.00 | 0.00 | 92 | 1024.1 |
| 20260906014504 | 16 | 240 | 0.0 | 0.0 | 0.00 | 0.00 | 0.00 | 92 | 1023.9 |
| 20260906013002 | 16 | 240 | 0.0 | 0.0 | 0.00 | 0.00 | 0.00 | 91 | 1023.7 |
| 20260906011502 | 16 | 240 | 0.0 | 0.0 | 0.00 | 0.00 | 0.00 | 91 | 1023.8 |
| 20260906010059 | 16 | 240 | 0.0 | 0.0 | 0.00 | 0.00 | 0.00 | 90 | 1023.8 |
| 20260906004608 | 17 | 240 | 0.0 | 0.0 | 0.00 | 0.00 | 0.00 | 89 | 1023.6 |
| 20260906003056 | 17 | 240 | 0.0 | 0.0 | 0.00 | 0.00 | 0.00 | 91 | 1023.6 |
| 20260906001554 | 17 | 240 | 0.0 | 0.0 | 0.00 | 0.00 | 0.00 | 90 | 1023.5 |
| 20260906000105 | 17 | 240 | 0.0 | 0.0 | 0.00 | 0.00 | 0.00 | 90 | 1023.5 |
| 20260905234556 | 17 | 240 | 0.0 | 0.0 | 0.00 | 0.00 | 0.00 | 89 | 1023.2 |
| 20260905233054 | 17 | 240 | 0.0 | 0.0 | 0.00 | 0.00 | 0.00 | 90 | 1023.2 |
| 20260905231550 | 17 | 240 | 0.0 | 0.0 | 0.00 | 0.00 | 0.00 | 89 | 1023.2 |
| 20260905230048 | 17 | 240 | 0.0 | 0.0 | 0.00 | 0.00 | 0.00 | 89 | 1023.1 |
| 20260905224600 | 17 | 240 | 0.0 | 0.0 | 0.00 | 0.00 | 0.00 | 89 | 1023.0 |
| 20260905223044 | 17 | 240 | 0.0 | 0.0 | 0.00 | 0.00 | 0.00 | 87 | 1022.9 |
| 20260905221543 | 18 | 240 | 0.0 | 0.0 | 0.00 | 0.00 | 0.00 | 86 | 1022.8 |
| 20260905220037 | 18 | 240 | 0.0 | 0.0 | 0.00 | 0.00 | 0.00 | 85 | 1022.7 |
| 20260905214538 | 18 | 240 | 0.0 | 0.0 | 0.00 | 0.00 | 0.00 | 85 | 1022.8 |
| 20260905213036 | 18 | 240 | 0.0 | 1.6 | 0.00 | 0.00 | 0.00 | 85 | 1022.6 |
| 20260905211536 | 18 | 240 | 0.0 | 1.6 | 0.00 | 0.00 | 0.00 | 84 | 1022.5 |
| 20260905210034 | 18 | 240 | 0.0 | 0.0 | 0.00 | 0.00 | 0.00 | 84 | 1022.4 |
| 20260905204534 | 18 | 240 | 0.0 | 1.6 | 0.00 | 0.00 | 0.00 | 83 | 1022.4 |
| 20260905203033 | 19 | 240 | 0.0 | 1.6 | 0.00 | 0.00 | 0.00 | 83 | 1022.2 |
| 20260905201535 | 20 | 240 | 0.0 | 0.0 | 0.00 | 0.00 | 0.00 | 81 | 1022.1 |
| 20260905200039 | 20 | 240 | 0.0 | 6.4 | 0.00 | 0.00 | 0.00 | 79 | 1022.0 |
| 20260905194529 | 20 | 324 | 0.0 | 6.4 | 0.00 | 0.00 | 0.00 | 79 | 1021.9 |
| 20260905193029 | 21 | 91 | 0.0 | 3.2 | 0.00 | 0.00 | 0.00 | 76 | 1021.7 |
| 20260905191532 | 21 | 60 | 0.0 | 3.2 | 0.00 | 0.00 | 0.00 | 75 | 1021.5 |
| 20260905190041 | 21 | 64 | 1.6 | 6.4 | 0.00 | 0.00 | 0.00 | 75 | 1021.3 |
| 20260905184524 | 21 | 271 | 0.0 | 8.0 | 0.00 | 0.00 | 0.00 | 74 | 1021.4 |
| 20260905183023 | 21 | 334 | 1.6 | 9.7 | 0.00 | 0.00 | 0.00 | 73 | 1021.0 |
| 20260905181525 | 21 | 355 | 3.2 | 9.7 | 0.00 | 0.00 | 0.00 | 73 | 1020.7 |
| 20260905180021 | 22 | 322 | 1.6 | 8.0 | 0.00 | 0.00 | 0.00 | 72 | 1020.6 |
| 20260905174516 | 22 | 348 | 1.6 | 9.7 | 0.00 | 0.00 | 0.00 | 70 | 1020.2 |
| 20260905173015 | 22 | 330 | 6.4 | 12.9 | 0.00 | 0.00 | 0.00 | 67 | 1020.0 |
| 20260905171514 | 23 | 348 | 3.2 | 9.7 | 0.00 | 0.00 | 0.00 | 65 | 1019.8 |
| 20260905170012 | 24 | 9 | 3.2 | 8.0 | 0.00 | 0.00 | 0.00 | 62 | 1019.8 |
| 20260905164510 | 25 | 81 | 1.6 | 9.7 | 0.00 | 0.00 | 0.00 | 61 | 1019.3 |
| 20260905163012 | 25 | 346 | 3.2 | 12.9 | 0.00 | 0.00 | 0.00 | 61 | 1019.3 |
| 20260905161510 | 25 | 348 | 8.0 | 16.1 | 0.00 | 0.00 | 0.00 | 59 | 1019.4 |
| 20260905160010 | 25 | 5 | 4.8 | 14.5 | 0.00 | 0.00 | 0.00 | 58 | 1019.3 |
| 20260905154506 | 25 | 57 | 6.4 | 17.7 | 0.00 | 0.00 | 0.00 | 56 | 1019.1 |
| 20260905153005 | 26 | 19 | 6.4 | 17.7 | 0.00 | 0.00 | 0.00 | 54 | 1018.8 |
| 20260905151505 | 26 | 323 | 3.2 | 17.7 | 0.00 | 0.00 | 0.00 | 54 | 1018.6 |
| 20260905144602 | 28 | 355 | 6.4 | 14.5 | 0.00 | 0.00 | 0.00 | 50 | 1018.3 |
| 20260905143058 | 28 | 90 | 8.0 | 17.7 | 0.00 | 0.00 | 0.00 | 49 | 1017.9 |
| 20260905141558 | 28 | 19 | 9.7 | 20.9 | 0.00 | 0.00 | 0.00 | 49 | 1017.8 |
| 20260905140106 | 28 | 49 | 6.4 | 24.1 | 0.00 | 0.00 | 0.00 | 51 | 1018.0 |
| 20260905134556 | 29 | 175 | 6.4 | 20.9 | 0.00 | 0.00 | 0.00 | 53 | 1017.8 |
| 20260905133102 | 30 | 91 | 4.8 | 16.1 | 0.00 | 0.00 | 0.00 | 52 | 1017.5 |
| 20260905131607 | 30 | 340 | 6.4 | 16.1 | 0.00 | 0.00 | 0.00 | 51 | 1017.5 |
| 20260905130053 | 31 | 30 | 6.4 | 16.1 | 0.00 | 0.00 | 0.00 | 46 | 1017.3 |
| 20260905124551 | 31 | 97 | 4.8 | 9.7 | 0.00 | 0.00 | 0.00 | 42 | 1017.1 |
| 20260905123050 | 30 | 35 | 1.6 | 9.7 | 0.00 | 0.00 | 0.00 | 43 | 1017.4 |
| 20260905121552 | 31 | 93 | 1.6 | 4.8 | 0.00 | 0.00 | 0.00 | 41 | 1017.3 |
| 20260905120047 | 31 | 158 | 0.0 | 3.2 | 0.00 | 0.00 | 0.00 | 42 | 1017.4 |
| 20260905114547 | 30 | 289 | 1.6 | 9.7 | 0.00 | 0.00 | 0.00 | 44 | 1017.4 |
| 20260905113045 | 31 | 38 | 3.2 | 11.3 | 0.00 | 0.00 | 0.00 | 43 | 1017.4 |
| 20260905111602 | 30 | 21 | 3.2 | 11.3 | 0.00 | 0.00 | 0.00 | 47 | 1017.5 |
| 20260905110041 | 30 | 82 | 4.8 | 9.7 | 0.00 | 0.00 | 0.00 | 46 | 1017.6 |
| 20260905104539 | 30 | 343 | 0.0 | 8.0 | 0.00 | 0.00 | 0.00 | 46 | 1017.6 |
| 20260905103038 | 29 | 80 | 0.0 | 6.4 | 0.00 | 0.00 | 0.00 | 47 | 1017.6 |
| 20260905101535 | 28 | 343 | 1.6 | 6.4 | 0.00 | 0.00 | 0.00 | 50 | 1017.6 |
| 20260905100032 | 27 | 86 | 0.0 | 8.0 | 0.00 | 0.00 | 0.00 | 52 | 1017.5 |
| 20260905094531 | 27 | 49 | 1.6 | 8.0 | 0.00 | 0.00 | 0.00 | 53 | 1017.8 |
| 20260905093028 | 27 | 321 | 1.6 | 6.4 | 0.00 | 0.00 | 0.00 | 55 | 1017.8 |
| 20260905091627 | 26 | 329 | 0.0 | 1.6 | 0.00 | 0.00 | 0.00 | 58 | 1017.8 |
| 20260905090026 | 26 | 320 | 0.0 | 6.4 | 0.00 | 0.00 | 0.00 | 55 | 1017.7 |
| 20260905084527 | 26 | 37 | 0.0 | 3.2 | 0.00 | 0.00 | 0.00 | 59 | 1017.6 |
| 20260905083022 | 26 | 96 | 1.6 | 8.0 | 0.00 | 0.00 | 0.00 | 58 | 1017.5 |
| 20260905081520 | 25 | 319 | 1.6 | 4.8 | 0.00 | 0.00 | 0.00 | 63 | 1017.6 |
| 20260905080016 | 24 | 118 | 0.0 | 6.4 | 0.00 | 0.00 | 0.00 | 69 | 1017.6 |
| 20260905074514 | 23 | 118 | 0.0 | 3.2 | 0.00 | 0.00 | 0.00 | 71 | 1017.4 |
| 20260905073014 | 22 | 118 | 1.6 | 4.8 | 0.00 | 0.00 | 0.00 | 72 | 1017.3 |
| 20260905071521 | 22 | 118 | 0.0 | 3.2 | 0.00 | 0.00 | 0.00 | 71 | 1017.4 |
| 20260905070008 | 22 | 118 | 0.0 | 6.4 | 0.00 | 0.00 | 0.00 | 73 | 1017.2 |
| 20260905064507 | 21 | 118 | 1.6 | 3.2 | 0.00 | 0.00 | 0.00 | 74 | 1017.1 |
| 20260905063006 | 20 | 118 | 3.2 | 8.0 | 0.00 | 0.00 | 0.00 | 75 | 1017.0 |
| 20260905061508 | 20 | 117 | 1.6 | 6.4 | 0.00 | 0.00 | 0.00 | 78 | 1017.1 |
| 20260905060005 | 20 | 350 | 0.0 | 3.2 | 0.00 | 0.00 | 0.00 | 80 | 1017.3 |
| 20260905054510 | 20 | 351 | 0.0 | 6.4 | 0.00 | 0.00 | 0.00 | 82 | 1017.0 |
| 20260905053003 | 19 | 337 | 0.0 | 8.0 | 0.00 | 0.00 | 0.00 | 83 | 1017.1 |